Time,TemperatureF,DewpointF,PressureIn,WindDirection,WindDirectionDegrees,WindSpeedMPH,WindSpeedGustMPH,Humidity,HourlyPrecipIn,Conditions,Clouds,dailyrainin,SoftwareType,DateUTC
2013-01-27 00:00:00,29.2,28.0,29.71,SE,146,0.0,0.0,94,0.00,,,0.00,weatherlink.com 1.10,2013-01-27 07:00:00,
2013-01-27 00:15:00,28.8,27.0,29.70,SE,146,0.0,0.0,94,0.00,,,0.00,weatherlink.com 1.10,2013-01-27 07:15:00,
2013-01-27 00:30:00,28.4,27.0,29.69,SE,136,0.0,2.0,95,0.00,,,0.00,weatherlink.com 1.10,2013-01-27 07:30:00,
2013-01-27 00:45:00,28.6,27.0,29.69,East,92,0.0,1.0,95,0.00,,,0.00,weatherlink.com 1.10,2013-01-27 07:45:00,
2013-01-27 01:00:00,28.8,28.0,29.68,WSW,237,0.0,4.0,95,0.00,,,0.00,weatherlink.com 1.10,2013-01-27 08:00:00,
2013-01-27 01:15:00,29.2,28.0,29.68,ESE,110,0.0,1.0,95,0.00,,,0.00,weatherlink.com 1.10,2013-01-27 08:15:00,
2013-01-27 01:30:00,29.2,28.0,29.68,West,261,0.0,2.0,95,0.00,,,0.00,weatherlink.com 1.10,2013-01-27 08:30:00,
2013-01-27 01:45:00,29.0,28.0,29.68,North,9,0.0,1.0,94,0.00,,,0.00,weatherlink.com 1.10,2013-01-27 08:45:00,
2013-01-27 02:00:00,29.1,28.0,29.67,West,269,1.0,2.0,95,0.00,,,0.00,weatherlink.com 1.10,2013-01-27 09:00:00,
2013-01-27 02:15:00,29.7,28.0,29.68,NNE,20,0.0,3.0,93,0.00,,,0.00,weatherlink.com 1.10,2013-01-27 09:15:00,
2013-01-27 02:30:00,29.9,28.0,29.68,East,86,1.0,1.0,93,0.00,,,0.00,weatherlink.com 1.10,2013-01-27 09:30:00,
2013-01-27 02:45:00,30.5,28.0,29.67,ENE,75,2.0,4.0,91,0.00,,,0.00,weatherlink.com 1.10,2013-01-27 09:45:00,
2013-01-27 03:00:00,29.7,28.0,29.67,East,82,0.0,2.0,93,0.00,,,0.00,weatherlink.com 1.10,2013-01-27 10:00:00,
2013-01-27 03:15:00,29.4,28.0,29.67,East,82,0.0,1.0,93,0.00,,,0.00,weatherlink.com 1.10,2013-01-27 10:15:00,
2013-01-27 03:30:00,29.4,28.0,29.67,East,82,0.0,0.0,93,0.00,,,0.00,weatherlink.com 1.10,2013-01-27 10:30:00,
2013-01-27 03:45:00,29.4,28.0,29.68,East,85,0.0,1.0,94,0.00,,,0.00,weatherlink.com 1.10,2013-01-27 10:45:00,
2013-01-27 04:00:00,29.7,28.0,29.66,SE,136,0.0,1.0,94,0.00,,,0.00,weatherlink.com 1.10,2013-01-27 11:00:00,
2013-01-27 04:15:00,30.4,28.0,29.67,NE,55,1.0,3.0,92,0.00,,,0.00,weatherlink.com 1.10,2013-01-27 11:15:00,
2013-01-27 04:30:00,30.6,29.0,29.66,East,84,0.0,1.0,92,0.00,,,0.00,weatherlink.com 1.10,2013-01-27 11:30:00,
2013-01-27 04:45:00,30.5,28.0,29.67,East,94,0.0,2.0,91,0.00,,,0.00,weatherlink.com 1.10,2013-01-27 11:45:00,
2013-01-27 05:00:00,30.8,28.0,29.67,NNE,15,0.0,3.0,90,0.00,,,0.00,weatherlink.com 1.10,2013-01-27 12:00:00,
2013-01-27 05:15:00,30.3,28.0,29.66,ENE,75,0.0,3.0,91,0.00,,,0.00,weatherlink.com 1.10,2013-01-27 12:15:00,
2013-01-27 05:30:00,30.9,28.0,29.67,ESE,112,0.0,1.0,90,0.00,,,0.00,weatherlink.com 1.10,2013-01-27 12:30:00,
2013-01-27 05:45:00,31.5,28.0,29.68,NNE,22,0.0,2.0,88,0.00,,,0.00,weatherlink.com 1.10,2013-01-27 12:45:00,
2013-01-27 06:00:00,32.0,28.0,29.69,NE,51,0.0,3.0,85,0.00,,,0.00,weatherlink.com 1.10,2013-01-27 13:00:00,
2013-01-27 06:15:00,31.8,28.0,29.68,East,86,2.0,4.0,85,0.00,,,0.00,weatherlink.com 1.10,2013-01-27 13:15:00,
2013-01-27 06:30:00,32.1,28.0,29.70,WNW,303,0.0,7.0,84,0.00,,,0.00,weatherlink.com 1.10,2013-01-27 13:30:00,
2013-01-27 06:45:00,32.2,27.0,29.71,SE,129,0.0,5.0,81,0.00,,,0.00,weatherlink.com 1.10,2013-01-27 13:45:00,
2013-01-27 07:00:00,32.1,27.0,29.71,North,357,1.0,5.0,82,0.00,,,0.00,weatherlink.com 1.10,2013-01-27 14:00:00,
2013-01-27 07:15:00,31.6,27.0,29.70,NNW,339,1.0,3.0,84,0.00,,,0.00,weatherlink.com 1.10,2013-01-27 14:15:00,
2013-01-27 07:30:00,31.9,28.0,29.71,ENE,68,1.0,2.0,85,0.00,,,0.00,weatherlink.com 1.10,2013-01-27 14:30:00,
2013-01-27 07:45:00,31.7,28.0,29.73,NNE,26,0.0,1.0,85,0.00,,,0.00,weatherlink.com 1.10,2013-01-27 14:45:00,
2013-01-27 08:00:00,32.3,27.0,29.72,South,171,0.0,5.0,81,0.00,,,0.00,weatherlink.com 1.10,2013-01-27 15:00:00,
2013-01-27 08:15:00,32.5,28.0,29.74,SSW,213,1.0,3.0,84,0.00,,,0.00,weatherlink.com 1.10,2013-01-27 15:15:00,
2013-01-27 08:30:00,34.6,27.0,29.72,South,175,0.0,7.0,73,0.00,,,0.00,weatherlink.com 1.10,2013-01-27 15:30:00,
2013-01-27 08:45:00,34.9,26.0,29.74,South,184,1.0,7.0,71,0.00,,,0.00,weatherlink.com 1.10,2013-01-27 15:45:00,
2013-01-27 09:00:00,35.8,26.0,29.73,East,100,3.0,12.0,68,0.00,,,0.00,weatherlink.com 1.10,2013-01-27 16:00:00,
2013-01-27 09:15:00,36.8,26.0,29.74,ENE,61,3.0,7.0,66,0.00,,,0.00,weatherlink.com 1.10,2013-01-27 16:15:00,
2013-01-27 09:31:00,37.6,25.0,29.75,SW,221,5.0,9.0,61,0.00,,,0.00,weatherlink.com 1.10,2013-01-27 16:31:00,
2013-01-27 09:46:00,38.4,25.0,29.74,SSW,192,4.0,7.0,58,0.00,,,0.00,weatherlink.com 1.10,2013-01-27 16:46:00,
2013-01-27 10:01:00,39.5,23.0,29.74,SE,141,1.0,11.0,53,0.00,,,0.00,weatherlink.com 1.10,2013-01-27 17:01:00,
2013-01-27 10:16:00,38.9,24.0,29.74,ESE,119,7.0,17.0,56,0.00,,,0.00,weatherlink.com 1.10,2013-01-27 17:16:00,
2013-01-27 10:31:00,38.9,23.0,29.73,WNW,290,3.0,17.0,54,0.01,,,0.01,weatherlink.com 1.10,2013-01-27 17:31:00,
2013-01-27 10:46:00,38.9,23.0,29.72,WNW,285,6.0,14.0,53,0.01,,,0.01,weatherlink.com 1.10,2013-01-27 17:46:00,
2013-01-27 11:01:00,39.7,23.0,29.72,ESE,118,2.0,14.0,51,0.02,,,0.02,weatherlink.com 1.10,2013-01-27 18:01:00,
2013-01-27 11:16:00,40.1,22.0,29.70,East,80,4.0,11.0,48,0.03,,,0.03,weatherlink.com 1.10,2013-01-27 18:16:00,
2013-01-27 11:31:00,39.4,22.0,29.71,West,271,9.0,18.0,49,0.02,,,0.03,weatherlink.com 1.10,2013-01-27 18:31:00,
2013-01-27 11:46:00,39.9,21.0,29.71,SW,222,2.0,25.0,48,0.01,,,0.03,weatherlink.com 1.10,2013-01-27 18:46:00,
2013-01-27 12:01:00,39.6,20.0,29.70,South,191,2.0,15.0,46,0.01,,,0.03,weatherlink.com 1.10,2013-01-27 19:01:00,
2013-01-27 12:16:00,39.4,21.0,29.71,SSE,150,2.0,18.0,47,0.01,,,0.04,weatherlink.com 1.10,2013-01-27 19:16:00,
2013-01-27 12:31:00,40.4,20.0,29.70,WSW,249,6.0,12.0,44,0.01,,,0.04,weatherlink.com 1.10,2013-01-27 19:31:00,
2013-01-27 12:46:00,40.1,19.0,29.69,SSW,196,7.0,12.0,43,0.01,,,0.04,weatherlink.com 1.10,2013-01-27 19:46:00,
2013-01-27 13:01:00,40.1,19.0,29.70,SW,222,6.0,15.0,42,0.01,,,0.04,weatherlink.com 1.10,2013-01-27 20:01:00,
2013-01-27 13:16:00,40.7,19.0,29.70,South,171,3.0,20.0,41,0.00,,,0.04,weatherlink.com 1.10,2013-01-27 20:16:00,
2013-01-27 13:31:00,40.6,18.0,29.71,South,181,5.0,17.0,41,0.00,,,0.04,weatherlink.com 1.10,2013-01-27 20:31:00,
2013-01-27 13:46:00,40.3,18.0,29.72,WSW,243,3.0,14.0,40,0.00,,,0.04,weatherlink.com 1.10,2013-01-27 20:46:00,
2013-01-27 14:01:00,40.3,18.0,29.71,North,9,4.0,15.0,40,0.00,,,0.04,weatherlink.com 1.10,2013-01-27 21:01:00,
2013-01-27 14:16:00,40.1,17.0,29.72,SSW,200,6.0,19.0,39,0.00,,,0.04,weatherlink.com 1.10,2013-01-27 21:16:00,
2013-01-27 14:31:00,40.6,17.0,29.72,SSW,198,2.0,13.0,38,0.00,,,0.04,weatherlink.com 1.10,2013-01-27 21:31:00,
2013-01-27 14:46:00,40.6,18.0,29.72,SSE,155,0.0,14.0,40,0.00,,,0.04,weatherlink.com 1.10,2013-01-27 21:46:00,
2013-01-27 15:01:00,40.8,18.0,29.73,South,177,2.0,8.0,40,0.00,,,0.04,weatherlink.com 1.10,2013-01-27 22:01:00,
2013-01-27 15:16:00,40.4,18.0,29.73,SE,127,1.0,13.0,40,0.00,,,0.04,weatherlink.com 1.10,2013-01-27 22:16:00,
2013-01-27 15:31:00,40.3,19.0,29.73,SSE,162,0.0,7.0,42,0.00,,,0.04,weatherlink.com 1.10,2013-01-27 22:31:00,
2013-01-27 15:46:00,39.9,18.0,29.75,South,170,1.0,6.0,42,0.00,,,0.04,weatherlink.com 1.10,2013-01-27 22:46:00,
2013-01-27 16:01:00,39.5,19.0,29.74,South,182,0.0,7.0,43,0.00,,,0.04,weatherlink.com 1.10,2013-01-27 23:01:00,
2013-01-27 16:16:00,38.4,19.0,29.74,South,176,0.0,2.0,45,0.00,,,0.04,weatherlink.com 1.10,2013-01-27 23:16:00,
2013-01-27 16:31:00,37.1,18.0,29.75,South,174,0.0,5.0,47,0.00,,,0.04,weatherlink.com 1.10,2013-01-27 23:31:00,
2013-01-27 16:46:00,37.0,18.0,29.75,SSE,158,1.0,9.0,46,0.00,,,0.04,weatherlink.com 1.10,2013-01-27 23:46:00,
2013-01-27 17:01:00,36.6,18.0,29.75,South,174,0.0,3.0,47,0.00,,,0.04,weatherlink.com 1.10,2013-01-28 00:01:00,
2013-01-27 17:16:00,35.8,18.0,29.75,SSE,162,2.0,7.0,49,0.00,,,0.04,weatherlink.com 1.10,2013-01-28 00:16:00,
2013-01-27 17:31:00,35.6,19.0,29.77,NE,44,3.0,3.0,51,0.00,,,0.04,weatherlink.com 1.10,2013-01-28 00:31:00,
2013-01-27 17:46:00,35.1,19.0,29.77,South,178,0.0,2.0,52,0.00,,,0.04,weatherlink.com 1.10,2013-01-28 00:46:00,
2013-01-27 18:01:00,35.2,19.0,29.78,South,186,1.0,4.0,52,0.00,,,0.04,weatherlink.com 1.10,2013-01-28 01:01:00,
2013-01-27 18:16:00,34.7,19.0,29.79,SSE,165,0.0,3.0,52,0.00,,,0.04,weatherlink.com 1.10,2013-01-28 01:16:00,
2013-01-27 18:31:00,34.8,19.0,29.79,SSE,158,0.0,4.0,52,0.00,,,0.04,weatherlink.com 1.10,2013-01-28 01:31:00,
2013-01-27 18:46:00,34.7,19.0,29.79,South,179,0.0,4.0,52,0.00,,,0.04,weatherlink.com 1.10,2013-01-28 01:46:00,
2013-01-27 19:01:00,34.7,18.0,29.79,South,171,1.0,6.0,51,0.00,,,0.04,weatherlink.com 1.10,2013-01-28 02:01:00,
2013-01-27 19:16:00,34.3,18.0,29.79,SSE,155,0.0,2.0,51,0.00,,,0.04,weatherlink.com 1.10,2013-01-28 02:16:00,
2013-01-27 19:31:00,34.4,17.0,29.78,South,181,1.0,6.0,50,0.00,,,0.04,weatherlink.com 1.10,2013-01-28 02:31:00,
2013-01-27 19:46:00,34.1,18.0,29.78,SSW,195,0.0,6.0,51,0.00,,,0.04,weatherlink.com 1.10,2013-01-28 02:46:00,
2013-01-27 20:01:00,34.0,17.0,29.78,South,185,0.0,6.0,51,0.00,,,0.04,weatherlink.com 1.10,2013-01-28 03:01:00,
2013-01-27 20:16:00,33.9,17.0,29.79,South,188,0.0,5.0,51,0.00,,,0.04,weatherlink.com 1.10,2013-01-28 03:16:00,
2013-01-27 20:31:00,33.8,17.0,29.79,SE,139,1.0,4.0,51,0.00,,,0.04,weatherlink.com 1.10,2013-01-28 03:31:00,
2013-01-27 20:46:00,33.5,17.0,29.79,East,97,3.0,6.0,51,0.00,,,0.04,weatherlink.com 1.10,2013-01-28 03:46:00,
2013-01-27 21:01:00,33.6,17.0,29.77,SSE,160,1.0,8.0,50,0.00,,,0.04,weatherlink.com 1.10,2013-01-28 04:01:00,
2013-01-27 21:16:00,33.4,15.0,29.76,South,177,4.0,8.0,48,0.00,,,0.04,weatherlink.com 1.10,2013-01-28 04:16:00,
2013-01-27 21:31:00,33.7,15.0,29.75,SSW,193,1.0,9.0,46,0.00,,,0.04,weatherlink.com 1.10,2013-01-28 04:31:00,
2013-01-27 21:46:00,33.9,14.0,29.75,SE,134,1.0,4.0,45,0.00,,,0.04,weatherlink.com 1.10,2013-01-28 04:46:00,
2013-01-27 22:16:00,29.6,16.0,29.74,SSW,208,0.0,0.0,56,0.00,,,0.04,weatherlink.com 1.10,2013-01-28 05:16:00,
2013-01-27 22:31:00,26.9,15.0,29.75,SSW,208,0.0,0.0,61,0.00,,,0.04,weatherlink.com 1.10,2013-01-28 05:31:00,
2013-01-27 22:46:00,25.7,15.0,29.75,SSW,209,0.0,1.0,64,0.00,,,0.04,weatherlink.com 1.10,2013-01-28 05:46:00,
2013-01-27 23:01:00,24.9,15.0,29.76,SSW,209,1.0,1.0,66,0.00,,,0.04,weatherlink.com 1.10,2013-01-28 06:01:00,
2013-01-27 23:17:00,24.4,15.0,29.75,SSW,209,0.0,1.0,68,0.00,,,0.04,weatherlink.com 1.10,2013-01-28 06:17:00,
2013-01-27 23:32:00,23.9,15.0,29.74,SSW,208,1.0,1.0,68,0.00,,,0.04,weatherlink.com 1.10,2013-01-28 06:32:00,
2013-01-27 23:47:00,23.7,15.0,29.75,SSW,208,0.0,1.0,69,0.00,,,0.04,weatherlink.com 1.10,2013-01-28 06:47:00,